Location: Unspecified
(0.0000°N, 0.0000°E)
Time: 06:08:05
(UTC+00:00)

ISS - Pass Details

Date: 06 September 2021
Orbit: 413 x 422 km, 51.6° (Epoch: 8 June)

Event Time Altitude Azimuth Distance (km) Brightness Sun altitude
Rises 09:00:16 0° 190° (S) 2,352 -0.1 45.1°
Reaches altitude 10° 09:02:54 10° 168° (SSE) 1,479 -0.8 45.8°
Maximum altitude 09:05:05 16° 126° (SE) 1,146 -0.8 46.3°
Drops below altitude 10° 09:07:16 10° 84° (E) 1,476 0.0 46.9°
Sets 09:09:53 0° 62° (ENE) 2,345 0.7 47.5°
